STARLINK-1036, 44741

Orbit data source: Space-Track

STARLINK-1036, 44741 is a payload satellite owned by SpaceX/Seattle (US) in LEO that was launched on Mon, 11 Nov 2019 UTC via an FALCON 9 launch vehicle from the Air Force Eastern Test Range (AFETR). Payload-class satellites include a variety of spacecraft equipped with specific instruments for various scientific and technological missions. These include communications satellites like Starlink; space stations such as the ISS; scientific satellites like the Hubble; Earth observation satellites from companies like Planet Labs, Umbra, and HawkEye 360; GPS; miniature CubeSats for education and research; and military/defense satellites.

Loading next visibility...
Identifier
44741, 2019-074AE
Orbit
LEO
Last TLE update
21 hours ago
Origin
Manufacturer
SpaceX/Seattle
Mission
Operational Commercial Communications
Bus & Motor
STARLINK, Unknown motor
Mass
260 kg wet, ~248 kg dry
Launch date (UTC)
2019-11-11 (6 years ago)
Launch vehicle
FALCON 9
Launch site
Air Force Eastern Test Range (AFETR)
Object type
Payload
Rocket body
Debris
Shape & HBR
Box + 1 Pan, 8.86 m
Radar Cross Section
13.562 m², Large (>1 m²)

Expand to show TLE details & history

TLE from 21 hours ago
0 STARLINK-1036
1 44741U 19074AE  25181.52956854  .00002474  00000-0  18497-3 0  9991
2 44741  53.0553 258.6095 0001174 103.5958 256.5161 15.06392847310467
Epoch: 2025-06-30T12:42Z
TLE epoch observation values (Epoch: 2025-06-30T12:42:34.721Z)
Latitude
-0.0001°
Longitude
149.12669°
Altitude
548.302 km
Speed
7.589 km/s
True Right ascension
17h 14m 26s
True Declination
0° 00' 00"
Sunlit
Object was in full shadow at epoch
Visualization orbit readout
Latitude
3.28415°
Longitude
-37.35129°
Altitude
547.447 km
Speed
7.59 km/s
Apparent Right ascension
06h 49m 05s
Apparent Declination
-21° 17' 20"
Sunlit
Object is in daylight
Visualization observer readout
Local Sidereal Time
21:49:37
Azimuth
77.756° E
Elevation
-47.487°
Doppler factor
1
Orbital elements
Apogee altitude
548.317 km
Perigee altitude
546.691 km
Semi-major axis
6,925.641 km
Eccentricity
0.00012
Inclination
53.0553°
RAAN
258.6095°
Arg. of periapsis
103.5958°
True anomaly
Unknown
Mean anomaly
256.5161°
Eccentric anomaly
Unknown
Mean motion
3.76576 °/min
Orbital period
95.6 mins
BSTAR
0.00018497
Loading maneuver chart data...
Loading SW <> Apogee altitude chart data...

STARLINK-1036 Visibility forecast

Observer location: undefined°, undefined°

Span
Click to sort rows by Start time (UTC) header in descending order
Start Az.
Max El. time (UTC)
Max El. Az.
Max El.
End time (UTC)
End Az.
5 mins2025-07-01 13:03:13.116Z346.948° N2025-07-01 13:05:13.116Z26.553° NE20.552°2025-07-01 13:08:13.116Z74.498° E
6 mins2025-07-01 14:42:13.116Z307.488° NW2025-07-01 14:45:13.116Z163.756° S44.244°2025-07-01 14:48:13.116Z134.37° SE
4 mins2025-07-02 06:16:13.116Z158.338° S2025-07-02 06:18:13.116Z122.436° SE17.505°2025-07-02 06:20:13.116Z89.665° E
6 mins2025-07-02 07:54:13.116Z245.885° WSW2025-07-02 07:57:13.116Z330.879° NNW41.128°2025-07-02 08:00:13.116Z41.521° NE
|